Regional Weather Roundup
Issued by NWS Upton, NY

Current Version | Previous Version | Graphics & Text | Print | Product List | Glossary Off
Versions: 1 2 3 4 5 6 7 8 9 10 11 12 13 14 15 16 17 18 19 20 21 22 23 24 25 26 27 28 29 30 31 32 33 34 35 36 37 38 39 40 41 42 43 44 45 46 47 48 49 50

000
ASUS41 KOKX 290704
RWROKX

REGIONAL WEATHER ROUNDUP
NATIONAL WEATHER SERVICE NEW YORK NY
300 AM EDT THU SEP 29 2016

NOTE: "FAIR" INDICATES FEW OR NO CLOUDS BELOW 12,000 FEET WITH NO
SIGNIFICANT WEATHER AND/OR OBSTRUCTIONS TO VISIBILITY.

NYZ071-072-176-178-NJZ106-104-290800-
NEW YORK CITY METRO AREA

CITY           SKY/WX    TMP DP  RH WIND       PRES   REMARKS
Central Park   CLOUDY    59  55  87 E8G17     30.27F
LaGuardia APRT CLOUDY    62  57  83 NE25G33   30.23F
Kennedy INTL   CLOUDY    61  56  83 NE20      30.24F
Newark/Liberty CLOUDY    58  55  90 N15       30.24F
Bronx Bot Gard   N/A     57  52  82 NE17      30.26F
Wall St Helipt CLOUDY    63  59  88 NE17G28   30.24S
Teterboro      DRIZZLE   59  52  77 NE13G21   30.24F
$$

NYZ177-179-078>081-290800-
LONG ISLAND NEW YORK

CITY           SKY/WX    TMP DP  RH WIND       PRES   REMARKS
Farmingdale    CLOUDY    60  57  89 NE16G24   30.25F
MacArthur/ISP  CLOUDY    59  58  96 NE10G20   30.25F FOG
Shirley        CLOUDY    59  57  93 VRB7      30.27F
Riverhead      NOT AVBL
Westhampton    CLOUDY    61  56  83 NE15G26   30.28S
Southampton      N/A     61  57  88 NE9       30.24S
Bridgehampton    N/A     59  57  94 S6        30.13R
East Hampton   CLOUDY    59  56  91 NE12G22   30.27R
Montauk          N/A     61  57  87 NE15G25   30.29R
$$

NYZ052-065-067-290800-
HUDSON VALLEY

CITY           SKY/WX    TMP DP  RH WIND       PRES   REMARKS
White Plains   MOCLDY    56  52  86 NE7G17    30.26F
Newburgh       CLOUDY    57  52  82 E8        30.30S
Montgomery     CLOUDY    57  50  77 NE8       30.29F
Poughkeepsie   CLOUDY    57  50  77 N5        30.29F
Albany         MOCLDY    50  46  86 CALM      30.35S
$$

NJZ001-105-106-008-010-013-015-019>022-104-290800-
NEW JERSEY

CITY           SKY/WX    TMP DP  RH WIND       PRES   REMARKS
Newark/Liberty CLOUDY    58  55  90 N15       30.24F
Teterboro      DRIZZLE   59  52  77 NE13G21   30.24F
Caldwell       CLOUDY    56  54  93 NE8       30.26F
Morristown     CLOUDY    55  54  94 NE9       30.26S
Somerville     CLOUDY    58  53  84 NE8       30.23F
Linden         NOT AVBL
Sussex         CLOUDY    54  53  97 NE12      30.27F FOG
Abdover          N/A     55  52  89 VRB5      30.27R
Trenton        LGT RAIN  58  56  93 NE8       30.23R
Millville      HVY RAIN  65  65 100 NE14      30.15S FOG
Atlantic City  RAIN      65  63  93 NE18G28   30.16S
Wrightstown    CLOUDY    61  59  94 NE9       30.18S FOG
Toms River     LGT RAIN  63  62  97 NE14G20   30.22R FOG
Belmar         LGT RAIN  61  60  97 NE15G22   30.23S FOG
$$

PAZ047>061-062-071-290800-
EASTERN PENNSYLVANIA

CITY           SKY/WX    TMP DP  RH WIND       PRES   REMARKS
Philadelphia   LGT RAIN  60  58  92 NE13G21   30.19F
Allentown      RAIN      57  53  86 E10       30.22F
Scranton       CLOUDY    56  51  84 E9G18     30.23R
$$

CTZ002-004>006-009-010-012-RIZ004-006-007-MAZ004-011-015-290800-
SOUTHERN NEW ENGLAND
 IN CT

CITY           SKY/WX    TMP DP  RH WIND       PRES   REMARKS
Bradley INTL   CLOUDY    55  48  77 N8        30.35R
Hartford       CLOUDY    57  50  77 N13       30.34R
Danbury        CLOUDY    55  49  80 NE14      30.30F
Wtrbury/Oxford   N/A     55  46  71 NE16G24   30.30F
Bridgeport     CLOUDY    60  52  74 NE16      30.28F
Meriden        CLOUDY    59  49  69 NE9G17    30.32R
New Haven      CLOUDY    59  51  75 NE10      30.29S
Chester        CLOUDY    57  52  82 NE9       30.31R
Groton         CLOUDY    61  54  77 NE18      30.29R
Wilimantic     CLOUDY    58  51  78 NE13G20   30.33R

 IN RI

CITY           SKY/WX    TMP DP  RH WIND       PRES   REMARKS
Providence     CLOUDY    59  53  80 NE16G24   30.32R
Block Island   CLOUDY    60  57  89 NE17G28   30.28R
Westerly       CLOUDY    60  53  77 N9G21     30.30R
 IN MA

CITY           SKY/WX    TMP DP  RH WIND       PRES   REMARKS
Boston         CLOUDY    57  51  80 NE18      30.36R
Worcester      CLOUDY    51  46  83 NE12G21   30.34S
Westfield      CLOUDY    56  49  77 N9        30.36R
Provincetown   CLOUDY    59  54  83 NE20G26   30.32S
Nantucket      CLOUDY    60  57  89 NE22G30   30.25S
$$

ANZ330-335-338-340-345-350-353-355-290800-
COASTAL MARINE OBSERVATIONS


STATION/POSITION TIME  SKY/WX   TEMP    WIND        PRES    VSBY  WAVE
                                AIR SEA DIR/SP/G                  HT/PER
                 (UTC)          (F)     (DEG/KT/KT) (MB)    (MI)  (FT/S)
NY HARB ENTRANCE 0550            63 70   50/ 23/ 29 1022.8          7/ 7
20S FIRE ISLAND  0550            65 69   60/ 25/ 31 1022.3          9/ 8
GREAT SOUTH BAY  0630            61 67   50/ 16/ 21   N/A
23 SSW MONTAUK P 0550            63 67   60/ 25/ 31 1023.4          8/ 7
15 E BARNEGAT LI 0600               70                N/A          10/ 8
HUDSON CANYON    0550            67 68              1021.7          9/ 8
KINGS POINT      0624            60 71              1024.5
EXECUTION ROCKS  0645            62      50/ 21/ 25   N/A
CENTRAL LI SOUND 0630            62 71   50/ 17/ 23   N/A           3/ 4
EASTERN LI SOUND NOT AVBL
ROBBINS REEF     0624            60      60/ 19/ 23 1023.8
$$


>>>>>>>>>>>>>>>>>>>>>>>>>>>> KEY <<<<<<<<<<<<<<<<<<<<<<<<<<<
>                                                          <
>     SKY/WX - Sky Condition/Present Weather               <
>     TMP    - Temperature in Fahrenheit                   <
>     DP     - Dew Point in Fahrenheit                     <
>     RH     - Relative Humidity in Percent                <
>     WIND   - Direction (from) and Speed in MPH           <
>     PRES   - Mean Sea Level Pressure (inches of Hg)      <
>     WCI    - Wind Chill Index                            <
>     VSB    - VISIBILITY IN MILES                         <
>     HX     - HEAT INDEX                                  <
>     TC     - TEMPERATURE IN CELSIUS                      <
>     VRB    - VARIABLE WIND DIRECTION                     <
>                                                          <
>>>>>>>>>>>>>>>>>>>>>>>>>>>> KEY <<<<<<<<<<<<<<<<<<<<<<<<<<<




USA.gov is the U.S. government's official web portal to all federal, state and local government web resources and services.